When you browse on this site, cookies collect data to enhance your experience and personalize the content and advertising you see.
Visit our Privacy Policy to learn more. By continuing to use the site, you agree to this use of cookies and data.

Hourly Weather Lankaran

Today, 2 July, Thursday

Time Temperature Precipitation Wind Pressure Humidity
00:00 +13°C° 0 mm 1 mps 633 mmHg 47%
01:00 +13°C° 0.2 mm 1 mps 633 mmHg 47%
02:00 +13°C° 0.2 mm 1 mps 633 mmHg 47%
03:00 +12°C° 0 mm 0 mps 633 mmHg 47%
04:00 +13°C° 0.3 mm 1 mps 633 mmHg 49%
05:00 +13°C° 0.3 mm 1 mps 634 mmHg 51%
06:00 +14°C° 0.3 mm 1 mps 634 mmHg 53%
07:00 +15°C° 0.1 mm 2 mps 635 mmHg 50%
08:00 +16°C° 0.1 mm 3 mps 635 mmHg 47%
09:00 +18°C° 0.1 mm 3 mps 635 mmHg 44%
10:00 +19°C° 0 mm 4 mps 636 mmHg 43%
11:00 +20°C° 0 mm 4 mps 636 mmHg 42%
12:00 +20°C° 0 mm 4 mps 636 mmHg 40%
13:00 +20°C° 0 mm 4 mps 636 mmHg 42%
14:00 +20°C° 0 mm 4 mps 635 mmHg 43%
15:00 +20°C° 0 mm 5 mps 635 mmHg 44%
16:00 +19°C° 0 mm 4 mps 635 mmHg 48%
17:00 +18°C° 0 mm 4 mps 635 mmHg 52%
18:00 +17°C° 0 mm 3 mps 634 mmHg 56%
19:00 +16°C° 0 mm 3 mps 634 mmHg 60%
20:00 +14°C° 0 mm 2 mps 634 mmHg 63%
21:00 +13°C° 0 mm 1 mps 634 mmHg 67%
22:00 +13°C° 0 mm 1 mps 634 mmHg 66%
23:00 +13°C° 0 mm 1 mps 633 mmHg 64%

Tomorrow, 3 July, Friday

Time Temperature Precipitation Wind Pressure Humidity
00:00 +13°C° 0 mm 1 mps 633 mmHg 63%
01:00 +12°C° 0 mm 1 mps 633 mmHg 63%
02:00 +12°C° 0 mm 1 mps 633 mmHg 64%
03:00 +12°C° 0 mm 1 mps 633 mmHg 64%
04:00 +13°C° 0 mm 1 mps 633 mmHg 61%
05:00 +15°C° 0 mm 1 mps 634 mmHg 58%
06:00 +16°C° 0 mm 1 mps 635 mmHg 55%
07:00 +18°C° 0 mm 1 mps 635 mmHg 51%
08:00 +19°C° 0 mm 2 mps 636 mmHg 47%
09:00 +21°C° 0 mm 3 mps 636 mmHg 44%
10:00 +22°C° 0 mm 3 mps 637 mmHg 41%
11:00 +22°C° 0 mm 4 mps 637 mmHg 38%
12:00 +23°C° 0 mm 4 mps 637 mmHg 36%
13:00 +23°C° 0 mm 4 mps 636 mmHg 36%
14:00 +23°C° 0 mm 4 mps 636 mmHg 36%
15:00 +23°C° 0 mm 4 mps 636 mmHg 37%
16:00 +22°C° 0 mm 4 mps 635 mmHg 39%
17:00 +21°C° 0 mm 3 mps 635 mmHg 42%
18:00 +20°C° 0 mm 3 mps 635 mmHg 44%
19:00 +18°C° 0 mm 2 mps 634 mmHg 46%
20:00 +17°C° 0 mm 2 mps 634 mmHg 49%
21:00 +15°C° 0 mm 1 mps 634 mmHg 51%
22:00 +15°C° 0 mm 1 mps 634 mmHg 50%
23:00 +15°C° 0 mm 1 mps 634 mmHg 49%

Day after tomorrow, 4 July, Saturday

Time Temperature Precipitation Wind Pressure Humidity
00:00 +15°C° 0 mm 1 mps 634 mmHg 48%
01:00 +15°C° 0 mm 1 mps 633 mmHg 49%
02:00 +13°C° 0 mm 0 mps 633 mmHg 49%
03:00 +13°C° 0 mm 0 mps 633 mmHg 50%
04:00 +14°C° 0 mm 0 mps 634 mmHg 47%
05:00 +16°C° 0 mm 0 mps 634 mmHg 44%
06:00 +17°C° 0 mm 0 mps 635 mmHg 42%
07:00 +21°C° 0 mm 1 mps 635 mmHg 38%
08:00 +21°C° 0 mm 2 mps 636 mmHg 35%
09:00 +24°C° 0 mm 3 mps 636 mmHg 32%
10:00 +25°C° 0 mm 3 mps 636 mmHg 32%
11:00 +26°C° 0 mm 4 mps 636 mmHg 32%
12:00 +26°C° 0 mm 4 mps 636 mmHg 33%
13:00 +26°C° 0 mm 4 mps 636 mmHg 33%
14:00 +26°C° 0 mm 4 mps 635 mmHg 33%
15:00 +26°C° 0 mm 5 mps 635 mmHg 32%
16:00 +25°C° 0 mm 4 mps 634 mmHg 35%
17:00 +22°C° 0 mm 3 mps 634 mmHg 38%
18:00 +21°C° 0 mm 3 mps 634 mmHg 41%
19:00 +20°C° 0 mm 2 mps 633 mmHg 42%
20:00 +18°C° 0 mm 2 mps 633 mmHg 44%
21:00 +16°C° 0 mm 1 mps 633 mmHg 46%
22:00 +16°C° 0 mm 1 mps 633 mmHg 43%
23:00 +16°C° 0 mm 1 mps 632 mmHg 40%

5 July, Sunday

Time Temperature Precipitation Wind Pressure Humidity
00:00 +16°C° 0 mm 1 mps 632 mmHg 38%
01:00 +16°C° 0 mm 1 mps 632 mmHg 39%
02:00 +15°C° 0 mm 1 mps 632 mmHg 41%
03:00 +14°C° 0 mm 0 mps 631 mmHg 42%
04:00 +16°C° 0.1 mm 1 mps 632 mmHg 42%
05:00 +18°C° 0.1 mm 1 mps 632 mmHg 42%
06:00 +19°C° 0.1 mm 1 mps 633 mmHg 42%
07:00 +20°C° 0 mm 1 mps 633 mmHg 39%
08:00 +21°C° 0 mm 2 mps 634 mmHg 35%
09:00 +23°C° 0 mm 2 mps 634 mmHg 31%
10:00 +24°C° 0 mm 3 mps 634 mmHg 32%
11:00 +24°C° 0 mm 3 mps 634 mmHg 32%
12:00 +25°C° 0 mm 3 mps 634 mmHg 32%
13:00 +25°C° 0 mm 4 mps 634 mmHg 32%
14:00 +25°C° 0 mm 4 mps 633 mmHg 32%
15:00 +25°C° 0 mm 4 mps 633 mmHg 32%
16:00 +23°C° 0 mm 4 mps 633 mmHg 33%
17:00 +22°C° 0 mm 3 mps 633 mmHg 33%
18:00 +21°C° 0 mm 3 mps 632 mmHg 34%
19:00 +20°C° 0 mm 2 mps 632 mmHg 34%
20:00 +18°C° 0 mm 2 mps 632 mmHg 34%
21:00 +18°C° 0 mm 1 mps 631 mmHg 33%
22:00 +16°C° 0 mm 1 mps 631 mmHg 34%
23:00 +16°C° 0 mm 1 mps 631 mmHg 34%

6 July, Monday

Time Temperature Precipitation Wind Pressure Humidity
00:00 +15°C° 0 mm 1 mps 631 mmHg 35%
01:00 +15°C° 0 mm 1 mps 631 mmHg 34%
02:00 +15°C° 0 mm 1 mps 631 mmHg 33%
03:00 +15°C° 0 mm 1 mps 630 mmHg 33%
04:00 +16°C° 0 mm 1 mps 631 mmHg 33%
05:00 +18°C° 0 mm 1 mps 631 mmHg 33%
06:00 +19°C° 0 mm 1 mps 632 mmHg 33%
07:00 +20°C° 0 mm 2 mps 633 mmHg 30%
08:00 +22°C° 0 mm 3 mps 633 mmHg 27%
09:00 +25°C° 0 mm 4 mps 634 mmHg 25%
10:00 +26°C° 0 mm 4 mps 634 mmHg 24%
11:00 +27°C° 0 mm 5 mps 634 mmHg 23%
12:00 +27°C° 0 mm 5 mps 634 mmHg 22%
13:00 +27°C° 0 mm 5 mps 634 mmHg 23%
14:00 +27°C° 0 mm 5 mps 634 mmHg 23%
15:00 +27°C° 0 mm 5 mps 633 mmHg 24%
16:00 +26°C° 0 mm 5 mps 633 mmHg 26%
17:00 +25°C° 0 mm 5 mps 633 mmHg 28%
18:00 +23°C° 0 mm 4 mps 632 mmHg 30%
19:00 +21°C° 0 mm 3 mps 632 mmHg 32%
20:00 +20°C° 0 mm 3 mps 632 mmHg 34%
21:00 +18°C° 0 mm 2 mps 632 mmHg 36%
22:00 +18°C° 0 mm 2 mps 632 mmHg 36%
23:00 +17°C° 0 mm 2 mps 631 mmHg 37%

7 July, Tuesday

Time Temperature Precipitation Wind Pressure Humidity
00:00 +18°C° 0 mm 1 mps 631 mmHg 38%
01:00 +18°C° 0 mm 1 mps 631 mmHg 39%
02:00 +18°C° 0 mm 1 mps 631 mmHg 40%
03:00 +16°C° 0 mm 1 mps 631 mmHg 40%
04:00 +19°C° 0 mm 1 mps 631 mmHg 40%
05:00 +20°C° 0 mm 1 mps 632 mmHg 39%
06:00 +21°C° 0 mm 1 mps 633 mmHg 38%
07:00 +23°C° 0 mm 2 mps 633 mmHg 34%
08:00 +24°C° 0 mm 3 mps 634 mmHg 30%
09:00 +26°C° 0 mm 4 mps 634 mmHg 26%
10:00 +27°C° 0 mm 5 mps 634 mmHg 26%
11:00 +27°C° 0 mm 5 mps 634 mmHg 25%
12:00 +28°C° 0 mm 6 mps 634 mmHg 25%
13:00 +28°C° 0 mm 6 mps 634 mmHg 25%
14:00 +28°C° 0 mm 6 mps 634 mmHg 25%
15:00 +28°C° 0 mm 6 mps 633 mmHg 25%
16:00 +26°C° 0 mm 5 mps 633 mmHg 28%
17:00 +25°C° 0 mm 4 mps 632 mmHg 31%
18:00 +24°C° 0 mm 3 mps 632 mmHg 33%
19:00 +21°C° 0 mm 3 mps 632 mmHg 35%
20:00 +20°C° 0 mm 2 mps 632 mmHg 37%
21:00 +19°C° 0 mm 1 mps 631 mmHg 39%
22:00 +19°C° 0 mm 1 mps 631 mmHg 39%
23:00 +18°C° 0 mm 1 mps 631 mmHg 40%
Show more